Regional Weather Roundup
Issued by NWS

Home | Current Version | Previous Version | Text Only | Print | Product List | Glossary Off
Versions: 1 2 3 4 5 6 7 8 9 10 11 12 13 14 15 16 17 18 19 20 21 22 23 24 25 26 27

000
ASUS45 KCYS 250510
RWRWY

WYOMING REGIONAL WEATHER ROUNDUP
NATIONAL WEATHER SERVICE CHEYENNE WY
1100 PM MDT TUE MAY 24 2016

NOTE:  "FAIR" INDICATES FEW OR NO CLOUDS BELOW 12,000 FEET
WITH NO SIGNIFICANT WEATHER AND/OR OBSTRUCTIONS TO VISIBILITY.

WYZ001-250600-
YELLOWSTONE NATIONAL PARK

CITY           SKY/WX    TMP DP  RH WIND       PRES   REMARKS
LK YELLOWSTONE   N/A     37  35  92 CALM      30.02R
W YELLOWSTONE  NOT AVBL

$$
WYZ002>013-054>058-071-098>099-250600-
NORTHERN WYOMING

CITY           SKY/WX    TMP DP  RH WIND       PRES   REMARKS
JACKSON        CLOUDY    39  39 100 SW5       29.99S
CODY           CLOUDY    48  45  87 S5        29.92S
GREYBULL       CLOUDY    54  47  77 N6        29.88S
WORLAND        MOCLDY    49  47  93 S5        29.90S
SHERIDAN       CLOUDY    50  47  89 W10       29.90R
BUFFALO        FAIR      47  44  90 N9        29.92R
GILLETTE       FAIR      46  45  96 CALM      29.85F
HULETT         RAIN      50  46  87 N7        29.89R
NEWCASTLE      TSTM      52  45  76 E9        29.87R

$$
WYZ014>020-022>026-101>103-250600-
CENTRAL WYOMING

CITY           SKY/WX    TMP DP  RH WIND       PRES   REMARKS
BIG PINEY      MOCLDY    39  37  92 SE3       30.02F
PINEDALE       FAIR      36  36 100 CALM      30.03F
DUBOIS         CLOUDY    39  32  75 NW12      29.97S WCI  32
LANDER         FAIR      44  39  82 S7        29.92R
RIVERTON       MOCLDY    48  40  73 CALM      29.94R
CASPER         CLOUDY    50  40  68 CALM      29.93R
DOUGLAS        MOCLDY    54  40  59 SW6       29.91R

$$
WYZ021-027>030-104>119-250600-
SOUTHERN WYOMING

CITY           SKY/WX    TMP DP  RH WIND       PRES   REMARKS
EVANSTON       FAIR      38  32  79 S7        30.02R WCI  33
KEMMERER         N/A     37  36  93 CALM      30.02S
FORT BRIDGER   CLEAR     39  39 100 CALM      30.05R
ROCK SPRINGS   FAIR      40  36  86 W8        30.03R WCI  34
DIXON          CLOUDY    49  35  56 E3        30.02R
RAWLINS          N/A     47  37  68 W7        30.00S THUNDER
SARATOGA       FAIR      45  36  70 NE3G16    30.02R
LARAMIE        FAIR      46  33  60 N13       29.99R
CHEYENNE       FAIR      51  41  68 W8        29.89S
TORRINGTON     FAIR      52  44  74 SE6       29.83R
PINE BLUFFS    FAIR      48  46  93 NE8       29.86S

$$




USA.gov is the U.S. government's official web portal to all federal, state and local government web resources and services.